Showing default

GEO-KOMPSAT-2A, 43823

Orbit data source: Space-Track

GEO-KOMPSAT-2A, 43823 is a payload satellite owned by KARI (KR) in GEO that was launched on Tue, 04 Dec 2018 UTC via an ARIANE 5ECA launch vehicle from the French Guiana (FRGUI). Payload-class satellites include a variety of spacecraft equipped with specific instruments for various scientific and technological missions. These include communications satellites like Starlink; space stations such as the ISS; scientific satellites like the Hubble; Earth observation satellites from companies like Planet Labs, Umbra, and HawkEye 360; GPS; miniature CubeSats for education and research; and military/defense satellites.

Not visible in the next 10 days
Identifier
43823, 2018-100A
Orbit
GEO
Country
Flag of KRKR / SKOR
Related business
Manufacturer
KARI
Mission
Operational Civil Weather
Bus & Motor
GK2, S400?
Mass
3,507 kg wet, ~2,000 kg dry
Launch date (UTC)
2018-12-04 (8 years ago)
Launch vehicle
ARIANE 5ECA
Launch site
French Guiana (FRGUI)
Object type
Payload
Rocket body
Debris
Shape & HBR
Box + 2 Pan, 5.0 m
Radar Cross Section
16.304 m², Large (>1 m²)

Expand to show TLE details & history
Last TLE update: 2 days ago

TLE from 2 days ago
0 GEO-KOMPSAT-2A
1 43823U 18100A   26171.41741235 -.00000348  00000-0  00000+0 0  9999
2 43823   0.0473 151.2642 0002170 295.2838 100.6088  1.00272261 27669
Epoch: 2026-06-20T10:01Z
TLE epoch observation values (Epoch: 2026-06-20T10:01:04.427Z)
Latitude
0.02876°
Longitude
128.29288°
Altitude
35,787.641 km
Speed
3.075 km/s
True Right ascension
12h 28m 46s
True Declination
0° 01' 43"
Sunlit
Object was in daylight at epoch
Visualization orbit readout
Latitude
Unknown
Longitude
Unknown
Altitude
Unknown
Speed
Unknown
Apparent Right ascension
Unknown
Apparent Declination
Unknown
Sunlit
N/A
Visualization observer readout
Local Sidereal Time
21:28:04
Azimuth
Unknown
Elevation
Unknown
Doppler factor
Unknown
Orbital elements
Apogee altitude
35,796.682 km
Perigee altitude
35,778.382 km
Semi-major axis
42,165.669 km
Eccentricity
0.00022
Inclination
0.0473°
RAAN
151.2642°
Arg. of periapsis
295.2838°
True anomaly
100.63324°
Mean anomaly
100.6088°
Eccentric anomaly
100.62102°
Mean motion
0.25067 °/min
Orbital period
1,436.14 mins
BSTAR
0
Loading maneuver chart data...
Computing Atmospheric mass density...
Loading historical data...
Loading historical data...
Loading historical data...
Loading historical data...
Loading historical data...
Loading historical data...
Loading historical data...
Other satellites on launch #100 in the year 2018 (2018-12-04 UTC)

Documentation

Showing up to 5 results
|